TimeCDT,TemperatureF,Dew PointF,Humidity,Sea Level PressureIn,VisibilityMPH,Wind Direction,Wind SpeedMPH,Gust SpeedMPH,PrecipitationIn,Events,Conditions,WindDirDegrees,DateUTC
12:53 AM,59.0,53.1,81,29.90,10.0,ESE,3.5,-,N/A,,Overcast,120,2012-10-03 05:53:00
2:53 AM,57.9,54.0,87,29.93,10.0,ESE,3.5,-,0.00,,Overcast,120,2012-10-03 07:53:00
3:53 AM,59.0,53.1,81,29.93,10.0,SSE,3.5,-,N/A,,Overcast,160,2012-10-03 08:53:00
4:53 AM,57.9,53.1,84,29.94,10.0,Calm,Calm,-,N/A,,Overcast,0,2012-10-03 09:53:00
5:53 AM,57.9,53.1,84,29.96,10.0,SSE,3.5,-,N/A,,Overcast,160,2012-10-03 10:53:00
6:53 AM,57.9,53.1,84,29.98,10.0,Calm,Calm,-,N/A,,Overcast,0,2012-10-03 11:53:00
7:53 AM,57.9,54.0,87,29.99,10.0,SSE,4.6,-,0.00,,Overcast,150,2012-10-03 12:53:00
8:53 AM,60.1,54.0,80,29.99,10.0,SSE,6.9,-,N/A,,Overcast,160,2012-10-03 13:53:00
9:53 AM,64.0,55.0,73,29.99,10.0,SSW,4.6,-,N/A,,Mostly Cloudy,210,2012-10-03 14:53:00
10:53 AM,66.0,53.1,63,30.00,10.0,South,8.1,-,N/A,,Mostly Cloudy,190,2012-10-03 15:53:00
11:53 AM,72.0,53.1,51,30.00,10.0,SSW,8.1,-,N/A,,Partly Cloudy,210,2012-10-03 16:53:00
12:53 PM,72.0,52.0,49,29.99,10.0,South,5.8,-,N/A,,Clear,190,2012-10-03 17:53:00
1:53 PM,71.1,51.1,49,29.97,10.0,South,4.6,-,N/A,,Mostly Cloudy,180,2012-10-03 18:53:00
2:53 PM,71.1,51.1,49,29.97,10.0,SSW,4.6,-,N/A,,Clear,210,2012-10-03 19:53:00
3:53 PM,73.0,50.0,44,29.97,10.0,SSW,4.6,-,N/A,,Clear,210,2012-10-03 20:53:00
4:53 PM,73.0,52.0,48,29.97,10.0,SSW,3.5,-,N/A,,Scattered Clouds,200,2012-10-03 21:53:00
5:53 PM,71.1,54.0,55,29.98,10.0,Calm,Calm,-,N/A,,Mostly Cloudy,0,2012-10-03 22:53:00
6:53 PM,66.9,55.9,68,29.99,10.0,Calm,Calm,-,N/A,,Mostly Cloudy,0,2012-10-03 23:53:00
8:53 PM,64.0,55.9,75,30.03,10.0,Calm,Calm,-,N/A,,Mostly Cloudy,0,2012-10-04 01:53:00
9:53 PM,63.0,55.9,78,30.04,10.0,SSE,3.5,-,N/A,,Mostly Cloudy,160,2012-10-04 02:53:00
10:53 PM,62.1,55.9,80,30.06,10.0,SSE,4.6,-,N/A,,Partly Cloudy,160,2012-10-04 03:53:00
11:53 PM,60.1,55.0,83,30.07,10.0,SSE,3.5,-,N/A,,Clear,150,2012-10-04 04:53:00